Left ArrowRight Arrow

Hourly Observations for December 17, 2021

Temp ( °F °C ) Dew Point ( °F °C ) Humidity (%) Winds ( mph kmh ) Pressure ( in mb ) Visibility ( mi km ) Precip ( " mm )
12:53 am 00:53 Cloudy with Mist and Fog 42 5.6 41 5 96 96 WSW 7 11 30.20 1023 3 5 0.00 0.00
1:25 am 01:25 Cloudy with Mist and Fog 42 5.6 42 5.6 100 100 WSW 7 11 30.21 1023 3 4 0.00 0.00
1:53 am 01:53 Cloudy with Mist and Fog 42 5.6 42 5.6 100 100 W 6 9 30.21 1023 2 3 0.00 0.00
2:41 am 02:41 Cloudy with Mist and Fog 42 5.6 42 5.6 100 100 Calm 30.23 1024 3 5 0.00 0.00
2:53 am 02:53 Cloudy with Mist and Fog 42 5.6 42 5.6 100 100 WNW 5 7 30.22 1023 3 5 0.00 0.00
3:03 am 03:03 Cloudy with Mist and Fog 42 5.6 41 5 96 96 WNW 3 6 30.23 1024 3 4 0.00 0.00
3:53 am 03:53 Cloudy with Mist and Fog 42 5.6 41 5 96 96 NW 6 9 30.22 1023 2 2 0.00 0.00
4:18 am 04:18 Cloudy with Mist and Fog 42 5.6 42 5.6 100 100 NW 3 6 30.23 1024 1 1 0.00 0.00
4:29 am 04:29 Cloudy with Mist and Fog 42 5.6 41 5 96 96 N 3 6 30.24 1024 2 3 0.00 0.00
4:36 am 04:36 Cloudy with Mist and Fog 42 5.6 42 5.6 100 100 undefined N/A 30.24 1024 3 4 0.00 0.00
4:49 am 04:49 Cloudy with Mist and Fog 43 6 41 5 93 93 WNW 3 6 30.24 1024 1 2 0.00 0.00
4:53 am 04:53 Cloudy with Mist and Fog 42 5.6 41 5 96 96 W 5 7 30.23 1024 1 1 0.00 0.00
5:05 am 05:05 Cloudy with Mist and Fog 42 5.6 42 5.6 100 100 W 5 7 30.24 1024 1 2 0.00 0.00
5:41 am 05:41 Cloudy with Mist and Fog 42 5.6 42 5.6 100 100 W 3 6 30.25 1024 3 4 0.00 0.00
5:53 am 05:53 Cloudy with Mist and Fog 42 5.6 42 5.6 100 100 W 3 6 30.25 1024 2 3 0.00 0.00
6:21 am 06:21 Cloudy with Mist and Fog 42 5.6 42 5.6 100 100 W 3 6 30.26 1025 3 5 0.00 0.00
6:45 am 06:45 Cloudy with Mist and Fog 43 6.1 42 5.6 97 97 W 5 7 30.27 1025 3 5 0.00 0.00
6:53 am 06:53 Cloudy with Mist and Fog 43 6.1 42 5.6 97 97 W 5 7 30.27 1025 4 6 0.00 0.00
7:41 am 07:41 Cloudy with Mist and Fog 43 6.1 42 5.6 97 97 WSW 5 7 30.29 1026 4 6 0.00 0.00
7:53 am 07:53 Cloudy with Mist and Fog 43 6.1 42 5.6 97 97 WSW 5 7 30.29 1026 4 6 0.00 0.00
8:03 am 08:03 Cloudy with Mist and Fog 43 6.1 42 5.6 97 97 WSW 3 6 30.30 1026 3 5 0.00 0.00
8:53 am 08:53 Cloudy 44 6.7 42 5.6 93 93 SW 6 9 30.30 1026 9 14 0.00 0.00
9:23 am 09:23 Cloudy 44 6.7 42 5.6 93 93 SW 5 7 30.33 1027 8 13 0.00 0.00
9:39 am 09:39 Cloudy 44 6.7 42 5.6 93 93 WSW 6 9 30.34 1027 9 14 0.00 0.00
9:53 am 09:53 Cloudy 44 6.7 42 5.6 93 93 WSW 3 6 30.33 1027 8 13 0.00 0.00
10:53 am 10:53 Cloudy 45 7.2 43 6.1 93 93 undefined N/A 30.33 1027 7 11 0.00 0.00
11:19 am 11:19 Cloudy 45 7.2 43 6.1 93 93 Calm 30.33 1027 7 11 0.00 0.00
11:32 am 11:32 Cloudy 45 7.2 43 6.1 93 93 Calm 30.33 1027 7 11 0.00 0.00
11:53 am 11:53 Cloudy 46 7.8 43 6.1 89 89 W 6 9 30.32 1027 8 13 0.00 0.00
12:53 pm 12:53 Cloudy with Mist and Fog 45 7.2 43 6.1 93 93 Calm 30.30 1026 5 8 0.00 0.00
1:42 pm 13:42 Cloudy 46 7.8 43 6.1 89 89 Calm 30.30 1026 8 13 0.00 0.00
1:53 pm 13:53 Cloudy 47 8.3 44 6.7 90 90 Calm 30.28 1025 8 13 0.00 0.00
2:17 pm 14:17 Cloudy 47 8.3 43 6.1 86 86 Calm 30.29 1026 9 14 0.00 0.00
2:35 pm 14:35 Cloudy 47 8.3 43 6.1 86 86 Calm 30.29 1026 10 16 0.00 0.00
2:53 pm 14:53 Mostly Cloudy 47 8.3 43 6.1 86 86 Calm 30.28 1026 10 16 0.00 0.00
3:08 pm 15:08 Partly Cloudy 47 8.3 43 6.1 86 86 W 3 6 30.30 1026 10 16 0.00 0.00
3:53 pm 15:53 Mostly Sunny 48 8.9 43 6.1 83 83 Calm 30.29 1026 9 14 0.00 0.00
4:41 pm 16:41 Mostly Cloudy 46 7.8 42 5.6 86 86 Calm 30.30 1026 8 13 0.00 0.00
4:53 pm 16:53 Cloudy 46 7.8 42 5.6 86 86 Calm 30.29 1026 8 13 0.00 0.00
5:53 pm 17:53 Cloudy 45 7.2 42 5.6 90 90 Calm 30.30 1026 8 13 0.00 0.00
6:53 pm 18:53 Cloudy 44 6.7 42 5.6 93 93 Calm 30.31 1026 7 11 0.00 0.00
7:53 pm 19:53 Cloudy 44 6.7 42 5.6 93 93 NNE 3 6 30.32 1027 8 13 0.00 0.00
8:36 pm 20:36 Partly Cloudy with Mist and Fog 41 5 40 4.4 96 96 Calm 30.33 1027 4 6 0.00 0.00
8:53 pm 20:53 Partly Cloudy with Mist and Fog 42 5.6 40 4.4 92 92 Calm 30.32 1027 5 8 0.00 0.00
9:00 pm 21:00 Mostly Cloudy with Mist and Fog 42 5.6 41 5 96 96 NE 6 9 30.34 1027 5 8 0.00 0.00
9:53 pm 21:53 Cloudy with Mist and Fog 43 6.1 41 5 93 93 SSE 3 6 30.32 1027 4 6 0.00 0.00
10:53 pm 22:53 Cloudy with Mist and Fog 44 6.7 42 5.6 93 93 S 3 6 30.33 1027 6 10 0.00 0.00
11:53 pm 23:53 Cloudy with Mist and Fog 43 6.1 41 5 93 93 Calm 30.33 1027 6 10 0.00 0.00

Powered by Vaisala Xweather